Location: Chuathbaluk
(61.5726°N, 159.2454°W)
Time: 23:24:16
(UTC+00:00)

Transit 2A - Pass Details

Date: 27 November 2020
Orbit: 598 x 960 km, 66.7° (Epoch: 20 January)

Event Time Altitude Azimuth Distance (km) Brightness Sun altitude
Rises 06:35:54 0° 239° (WSW) 3,603 10.0 -34.0°
Reaches altitude 10° 06:38:31 10° 241° (WSW) 2,632 9.2 -34.3°
Enters shadow 06:42:17 39° 246° (WSW) 1,331 7.4 -34.7°
Maximum altitude 06:44:41 81° 329° (NNW) 897 - -34.9°
Drops below altitude 10° 06:50:21 10° 57° (ENE) 2,425 - -35.6°
Sets 06:52:41 0° 58° (ENE) 3,303 - -35.8°
